Year,Month,Day,Hour,Minute,Value (Times are PST for temperature in C)
2016,06,20,00,00,14.20
2016,06,20,00,01,14.20
2016,06,20,00,02,14.30
2016,06,20,00,03,14.30
2016,06,20,00,04,14.30
2016,06,20,00,05,14.30
2016,06,20,00,06,14.30
2016,06,20,00,07,14.30
2016,06,20,00,08,14.30
2016,06,20,00,09,14.30
2016,06,20,00,10,14.30
2016,06,20,00,11,14.30
2016,06,20,00,12,14.30
2016,06,20,00,13,14.30
2016,06,20,00,14,14.40
2016,06,20,00,15,14.40
2016,06,20,00,16,14.40
2016,06,20,00,17,14.40
2016,06,20,00,18,14.40
2016,06,20,00,19,14.40
2016,06,20,00,20,14.30
2016,06,20,00,21,14.30
2016,06,20,00,22,14.30
2016,06,20,00,23,14.30
2016,06,20,00,24,14.30
2016,06,20,00,25,14.30
2016,06,20,00,26,14.20
2016,06,20,00,27,14.20
2016,06,20,00,28,14.20
2016,06,20,00,29,14.20
2016,06,20,00,30,14.20
2016,06,20,00,31,14.20
2016,06,20,00,32,14.20
2016,06,20,00,33,14.20
2016,06,20,00,34,14.10
2016,06,20,00,35,14.10
2016,06,20,00,36,14.10
2016,06,20,00,37,14.10
2016,06,20,00,38,14.10
2016,06,20,00,39,14.10
2016,06,20,00,40,14.10
2016,06,20,00,41,14.10
2016,06,20,00,42,14.10
2016,06,20,00,43,14.10
2016,06,20,00,44,14.10
2016,06,20,00,45,14.10
2016,06,20,00,46,14.10
2016,06,20,00,47,14.10
2016,06,20,00,48,14.10
2016,06,20,00,49,14.10
2016,06,20,00,50,14.10
2016,06,20,00,51,14.10
2016,06,20,00,52,14.10
2016,06,20,00,53,14.10
2016,06,20,00,54,14.10
2016,06,20,00,55,14.10
2016,06,20,00,56,14.10
2016,06,20,00,57,14.10
2016,06,20,00,58,14.10
2016,06,20,00,59,14.10
2016,06,20,01,00,14.10
2016,06,20,01,01,14.10
2016,06,20,01,02,14.10
2016,06,20,01,03,14.10
2016,06,20,01,04,14.20
2016,06,20,01,05,14.20
2016,06,20,01,06,14.20
2016,06,20,01,07,14.20
2016,06,20,01,08,14.20
2016,06,20,01,09,14.20
2016,06,20,01,10,14.20
2016,06,20,01,11,14.20
2016,06,20,01,12,14.20
2016,06,20,01,13,14.20
2016,06,20,01,14,14.20
2016,06,20,01,15,14.30
2016,06,20,01,16,14.20
2016,06,20,01,17,14.20
2016,06,20,01,18,14.20
2016,06,20,01,19,14.20
2016,06,20,01,20,14.20
2016,06,20,01,21,14.20
2016,06,20,01,22,14.20
2016,06,20,01,23,14.20
2016,06,20,01,24,14.20
2016,06,20,01,25,14.20
2016,06,20,01,26,14.20
2016,06,20,06,05,11.90
2016,06,20,06,06,11.90
2016,06,20,06,07,11.90
2016,06,20,06,08,11.90
2016,06,20,06,09,11.90
2016,06,20,06,10,11.90
2016,06,20,06,11,12.00
2016,06,20,06,12,12.00
2016,06,20,06,13,12.00
2016,06,20,06,14,12.00
2016,06,20,06,15,12.00
2016,06,20,06,16,12.10
2016,06,20,06,17,12.10
2016,06,20,06,18,12.10
2016,06,20,06,19,12.10
2016,06,20,06,20,12.10
2016,06,20,06,21,12.10
2016,06,20,06,22,12.20
2016,06,20,06,23,12.20
2016,06,20,06,24,12.20
2016,06,20,06,25,12.20
2016,06,20,06,26,12.20
2016,06,20,06,27,12.20
2016,06,20,06,28,12.30
2016,06,20,06,29,12.30
2016,06,20,06,30,12.30
2016,06,20,06,31,12.30
2016,06,20,06,32,12.30
2016,06,20,06,33,12.30
2016,06,20,06,34,12.30
2016,06,20,06,35,12.30
2016,06,20,06,36,12.40
2016,06,20,06,37,12.40
2016,06,20,06,38,12.40
2016,06,20,06,39,12.40
2016,06,20,06,40,12.50
2016,06,20,06,41,12.50
2016,06,20,06,42,12.50
2016,06,20,06,43,12.60
2016,06,20,06,44,12.60
2016,06,20,06,45,12.60
2016,06,20,06,46,12.70
2016,06,20,06,47,12.70
2016,06,20,06,48,12.70
2016,06,20,06,49,12.70
2016,06,20,06,50,12.70
2016,06,20,06,51,12.70
2016,06,20,06,52,12.70
2016,06,20,06,53,12.80
2016,06,20,06,54,12.80
2016,06,20,06,55,12.80
2016,06,20,06,56,12.80
2016,06,20,06,57,12.80
2016,06,20,06,58,12.80
2016,06,20,06,59,12.80
2016,06,20,07,00,12.90
2016,06,20,07,01,12.90
2016,06,20,07,02,12.90
2016,06,20,07,03,12.90
2016,06,20,07,04,12.90
2016,06,20,07,05,13.00
2016,06,20,07,06,13.00
2016,06,20,07,07,13.00
2016,06,20,07,08,13.10
2016,06,20,07,09,13.10
2016,06,20,07,10,13.20
2016,06,20,07,11,13.20
2016,06,20,07,12,13.20
2016,06,20,07,13,13.30
2016,06,20,07,14,13.30
2016,06,20,07,15,13.40
2016,06,20,07,16,13.50
2016,06,20,07,17,13.50
2016,06,20,07,18,13.60
2016,06,20,07,19,13.70
2016,06,20,07,20,13.70
2016,06,20,07,21,13.80
2016,06,20,07,22,13.80
2016,06,20,07,23,13.80
2016,06,20,07,24,13.90
2016,06,20,07,25,13.90
2016,06,20,07,26,14.00
2016,06,20,07,27,14.00
2016,06,20,07,28,14.10
2016,06,20,07,29,14.10
2016,06,20,07,30,14.20
2016,06,20,07,31,14.20
2016,06,20,07,32,14.30
2016,06,20,07,33,14.30
2016,06,20,07,34,14.40
2016,06,20,07,35,14.50
2016,06,20,07,36,14.50
2016,06,20,07,37,14.60
2016,06,20,07,38,14.70
2016,06,20,07,39,14.80
2016,06,20,07,40,14.90
2016,06,20,07,41,15.00
2016,06,20,07,42,15.10
2016,06,20,07,43,15.20
2016,06,20,07,44,15.30
2016,06,20,07,45,15.40
2016,06,20,07,46,15.40
2016,06,20,07,47,15.50
2016,06,20,07,48,15.60
2016,06,20,07,49,15.70
2016,06,20,07,50,15.70
2016,06,20,07,51,15.70
2016,06,20,07,52,15.80
2016,06,20,07,53,15.80
2016,06,20,07,54,15.80
2016,06,20,07,55,15.80
2016,06,20,07,56,15.70
2016,06,20,07,57,15.70
2016,06,20,07,58,15.70
2016,06,20,07,59,15.70
2016,06,20,08,00,15.70
2016,06,20,08,01,15.70
2016,06,20,08,02,15.70
2016,06,20,08,03,15.70
2016,06,20,08,04,15.80
2016,06,20,08,05,15.80
2016,06,20,08,06,15.90
2016,06,20,08,07,15.90
2016,06,20,08,08,15.90
2016,06,20,08,09,15.90
2016,06,20,08,10,16.00
2016,06,20,08,11,16.00
2016,06,20,08,12,16.10
2016,06,20,08,13,16.10
2016,06,20,08,14,16.10
2016,06,20,08,15,16.10
2016,06,20,08,16,16.00
2016,06,20,08,17,16.00
2016,06,20,08,18,15.90
2016,06,20,08,19,15.80
2016,06,20,08,20,15.80
2016,06,20,08,21,15.70
2016,06,20,08,22,15.70
2016,06,20,08,23,15.70
2016,06,20,08,24,15.60
2016,06,20,08,25,15.60
2016,06,20,08,26,15.70
2016,06,20,08,27,15.70
2016,06,20,08,28,15.70
2016,06,20,08,29,15.70
2016,06,20,08,30,15.70
2016,06,20,08,31,15.70
2016,06,20,08,32,15.70
2016,06,20,08,33,15.70
2016,06,20,08,34,15.60
2016,06,20,08,35,15.60
2016,06,20,08,36,15.70
2016,06,20,08,37,15.70
2016,06,20,08,38,15.70
2016,06,20,08,39,15.70
2016,06,20,08,40,15.70
2016,06,20,08,41,15.70
2016,06,20,08,42,15.70
2016,06,20,08,43,15.70
2016,06,20,08,44,15.70
2016,06,20,08,45,15.70
2016,06,20,08,46,15.70
2016,06,20,08,47,15.70
2016,06,20,08,48,15.70
2016,06,20,08,49,15.70
2016,06,20,08,50,15.70
2016,06,20,08,51,15.70
2016,06,20,08,52,15.60
2016,06,20,08,53,15.60
2016,06,20,08,54,15.60
2016,06,20,08,55,15.70
2016,06,20,08,56,15.70
2016,06,20,08,57,15.70
2016,06,20,08,58,15.70
2016,06,20,08,59,15.70
2016,06,20,09,00,15.70
2016,06,20,09,01,15.70
2016,06,20,09,02,15.70
2016,06,20,09,03,15.70
2016,06,20,09,04,15.70
2016,06,20,09,05,15.70
2016,06,20,09,06,15.80
2016,06,20,09,07,15.80
2016,06,20,09,08,15.80
2016,06,20,09,09,15.90
2016,06,20,09,10,15.90
2016,06,20,09,11,16.00
2016,06,20,09,12,16.00
2016,06,20,09,13,16.10
2016,06,20,09,14,16.20
2016,06,20,09,15,16.20
2016,06,20,09,16,16.20
2016,06,20,09,17,16.10
2016,06,20,09,18,16.10
2016,06,20,09,19,16.10
2016,06,20,09,20,16.10
2016,06,20,09,21,16.00
2016,06,20,09,22,16.00
2016,06,20,09,23,16.00
2016,06,20,09,24,16.00
2016,06,20,09,25,16.00
2016,06,20,09,26,16.00
2016,06,20,09,27,16.00
2016,06,20,09,28,16.10
2016,06,20,09,29,16.10
2016,06,20,09,30,16.10
2016,06,20,09,31,16.20
2016,06,20,09,32,16.20
2016,06,20,09,33,16.30
2016,06,20,09,34,16.40
2016,06,20,09,35,16.50
2016,06,20,09,36,16.60
2016,06,20,09,37,16.60
2016,06,20,09,38,16.60
2016,06,20,09,39,16.60
2016,06,20,09,40,16.70
2016,06,20,09,41,16.70
2016,06,20,09,42,16.70
2016,06,20,09,43,16.70
2016,06,20,09,44,16.70
2016,06,20,09,45,16.70
2016,06,20,09,46,16.70
2016,06,20,09,47,16.90
2016,06,20,09,48,17.00
2016,06,20,09,49,17.10
2016,06,20,09,50,17.10
2016,06,20,09,51,17.10
2016,06,20,09,52,17.20
2016,06,20,09,53,17.20
2016,06,20,09,54,17.30
2016,06,20,09,55,17.30
2016,06,20,09,56,17.20
2016,06,20,09,57,17.20
2016,06,20,09,58,17.20
2016,06,20,09,59,17.20
2016,06,20,10,00,17.40
2016,06,20,10,01,17.50
2016,06,20,10,02,17.70
2016,06,20,10,03,17.80
2016,06,20,10,04,17.90
2016,06,20,10,05,17.90
2016,06,20,10,06,17.90
2016,06,20,10,07,17.90
2016,06,20,10,08,17.90
2016,06,20,10,09,17.80
2016,06,20,10,10,17.70
2016,06,20,10,11,17.70
2016,06,20,10,12,17.70
2016,06,20,10,13,17.70
2016,06,20,10,14,17.70
2016,06,20,10,15,17.70
2016,06,20,10,16,17.70
2016,06,20,10,17,17.70
2016,06,20,10,18,17.70
2016,06,20,10,19,17.70
2016,06,20,10,20,17.80
2016,06,20,10,21,17.90
2016,06,20,10,22,18.00
2016,06,20,10,23,18.00
2016,06,20,10,24,17.90
2016,06,20,10,25,17.90
2016,06,20,10,26,17.80
2016,06,20,10,27,17.90
2016,06,20,10,28,17.90
2016,06,20,10,29,17.90
2016,06,20,10,30,17.90
2016,06,20,10,31,17.80
2016,06,20,10,32,17.80
2016,06,20,10,33,17.80
2016,06,20,10,34,17.80
2016,06,20,10,35,17.80
2016,06,20,10,36,17.80
2016,06,20,10,37,17.90
2016,06,20,10,38,18.00
2016,06,20,10,39,18.10
2016,06,20,10,40,18.10
2016,06,20,10,41,18.30
2016,06,20,10,42,18.40
2016,06,20,10,43,18.40
2016,06,20,10,44,18.60
2016,06,20,10,45,18.70
2016,06,20,10,46,18.80
2016,06,20,10,47,18.80
2016,06,20,10,48,18.90
2016,06,20,10,49,18.90
2016,06,20,10,50,18.90
2016,06,20,10,51,18.90
2016,06,20,10,52,18.80
2016,06,20,10,53,18.80
2016,06,20,10,54,18.80
2016,06,20,10,55,18.80
2016,06,20,10,56,18.80
2016,06,20,10,57,18.80
2016,06,20,10,58,18.80
2016,06,20,10,59,18.80
2016,06,20,11,00,18.80
2016,06,20,11,01,18.80
2016,06,20,11,02,18.80
2016,06,20,11,03,18.80
2016,06,20,11,04,18.80
2016,06,20,11,05,18.80
2016,06,20,11,06,18.80
2016,06,20,11,07,18.90
2016,06,20,11,08,19.00
2016,06,20,11,09,19.10
2016,06,20,11,10,19.10
2016,06,20,11,11,19.10
2016,06,20,11,12,19.20
2016,06,20,11,13,19.30
2016,06,20,11,14,19.40
2016,06,20,11,15,19.50
2016,06,20,11,16,19.60
2016,06,20,11,17,19.70
2016,06,20,11,18,19.90
2016,06,20,11,19,20.00
2016,06,20,11,20,20.10
2016,06,20,11,21,20.10
2016,06,20,11,22,20.10
2016,06,20,11,23,20.10
2016,06,20,11,24,20.10
2016,06,20,11,25,20.10
2016,06,20,11,26,20.00
2016,06,20,11,27,19.90
2016,06,20,11,28,19.90
2016,06,20,11,29,19.80
2016,06,20,11,30,19.80
2016,06,20,11,31,19.80
2016,06,20,11,32,19.70
2016,06,20,11,33,19.70
2016,06,20,11,34,19.70
2016,06,20,11,35,19.70
2016,06,20,11,36,19.70
2016,06,20,11,37,19.70
2016,06,20,11,38,19.70
2016,06,20,11,39,19.70
2016,06,20,11,40,19.80
2016,06,20,11,41,19.90
2016,06,20,11,42,19.90
2016,06,20,11,43,19.90
2016,06,20,11,44,20.00
2016,06,20,11,45,20.00
2016,06,20,11,46,20.10
2016,06,20,11,47,20.10
2016,06,20,11,48,20.20
2016,06,20,11,49,20.30
2016,06,20,11,50,20.40
2016,06,20,11,51,20.40
2016,06,20,11,52,20.50
2016,06,20,11,53,20.60
2016,06,20,11,54,20.70
2016,06,20,11,55,20.70
2016,06,20,11,56,20.70
2016,06,20,11,57,20.60
2016,06,20,11,58,20.50
2016,06,20,11,59,20.40
2016,06,20,12,00,20.40
2016,06,20,12,01,20.30
2016,06,20,12,02,20.30
2016,06,20,12,03,20.30
2016,06,20,12,04,20.40
2016,06,20,12,05,20.40
2016,06,20,12,06,20.40
2016,06,20,12,07,20.50
2016,06,20,12,08,20.60
2016,06,20,12,09,20.80
2016,06,20,12,10,20.90
2016,06,20,12,11,21.10
2016,06,20,12,12,21.30
2016,06,20,12,13,21.50
2016,06,20,12,14,21.60
2016,06,20,12,15,21.70
2016,06,20,12,16,21.70
2016,06,20,12,17,21.70
2016,06,20,12,18,21.80
2016,06,20,12,19,21.90
2016,06,20,12,20,22.00
2016,06,20,12,21,21.90
2016,06,20,12,22,21.80
2016,06,20,12,23,21.70
2016,06,20,12,24,21.50
2016,06,20,12,25,21.30
2016,06,20,12,26,21.30
2016,06,20,12,27,21.30
2016,06,20,12,28,21.30
2016,06,20,12,29,21.30
2016,06,20,12,30,21.30
2016,06,20,12,31,21.30
2016,06,20,12,32,21.20
2016,06,20,12,33,21.10
2016,06,20,12,34,21.00
2016,06,20,12,35,21.00
2016,06,20,12,36,21.00
2016,06,20,12,37,21.10
2016,06,20,12,38,20.90
2016,06,20,12,39,20.70
2016,06,20,12,40,20.50
2016,06,20,12,41,20.40
2016,06,20,12,42,20.30
2016,06,20,12,43,20.20
2016,06,20,12,44,20.20
2016,06,20,12,45,20.10
2016,06,20,12,46,20.10
2016,06,20,12,47,20.20
2016,06,20,12,48,20.20
2016,06,20,12,49,20.30
2016,06,20,12,50,20.40
2016,06,20,12,51,20.50
2016,06,20,12,52,20.60
2016,06,20,12,53,20.60
2016,06,20,12,54,20.40
2016,06,20,12,55,20.20
2016,06,20,12,56,20.10
2016,06,20,12,57,20.10
2016,06,20,12,58,20.00
2016,06,20,12,59,19.90
2016,06,20,13,00,20.00
2016,06,20,13,01,20.10
2016,06,20,13,02,20.20
2016,06,20,13,03,20.20
2016,06,20,13,04,20.20
2016,06,20,13,05,20.20
2016,06,20,13,06,20.30
2016,06,20,13,07,20.20
2016,06,20,13,08,20.20
2016,06,20,13,09,20.20
2016,06,20,13,10,20.20
2016,06,20,13,11,20.10
2016,06,20,13,12,20.10
2016,06,20,13,13,20.10
2016,06,20,13,14,20.20
2016,06,20,13,15,20.20
2016,06,20,13,16,20.30
2016,06,20,13,17,20.30
2016,06,20,13,18,20.30
2016,06,20,13,19,20.40
2016,06,20,13,20,20.50
2016,06,20,13,21,20.50
2016,06,20,13,22,20.40
2016,06,20,13,23,20.30
2016,06,20,13,24,20.30
2016,06,20,13,25,20.30
2016,06,20,13,26,20.30
2016,06,20,13,27,20.20
2016,06,20,13,28,20.20
2016,06,20,13,29,20.20
2016,06,20,13,30,20.20
2016,06,20,13,31,20.20
2016,06,20,13,32,20.40
2016,06,20,13,33,20.50
2016,06,20,13,34,20.50
2016,06,20,13,35,20.50
2016,06,20,13,36,20.50
2016,06,20,13,37,20.60
2016,06,20,13,38,20.70
2016,06,20,13,39,20.80
2016,06,20,13,40,20.90
2016,06,20,13,41,20.90
2016,06,20,13,42,20.90
2016,06,20,13,43,20.90
2016,06,20,13,44,21.00
2016,06,20,13,45,21.00
2016,06,20,13,46,21.00
2016,06,20,13,47,21.10
2016,06,20,13,48,21.10
2016,06,20,13,49,21.10
2016,06,20,13,50,21.00
2016,06,20,13,51,21.10
2016,06,20,13,52,21.00
2016,06,20,13,53,20.90
2016,06,20,13,54,20.60
2016,06,20,13,55,20.50
2016,06,20,13,56,20.40
2016,06,20,13,57,20.30
2016,06,20,13,58,20.30
2016,06,20,13,59,20.20
2016,06,20,14,00,20.20
2016,06,20,14,01,20.30
2016,06,20,14,02,20.30
2016,06,20,14,03,20.30
2016,06,20,14,04,20.30
2016,06,20,14,05,20.30
2016,06,20,14,06,20.30
2016,06,20,14,07,20.30
2016,06,20,14,08,20.30
2016,06,20,14,09,20.30
2016,06,20,14,10,20.40
2016,06,20,14,11,20.50
2016,06,20,14,12,20.50
2016,06,20,14,13,20.60
2016,06,20,14,14,20.70
2016,06,20,14,15,20.70
2016,06,20,14,16,20.80
2016,06,20,14,17,20.80
2016,06,20,14,18,20.80
2016,06,20,14,19,20.80
2016,06,20,14,20,20.80
2016,06,20,14,21,20.80
2016,06,20,14,22,20.80
2016,06,20,14,23,20.80
2016,06,20,14,24,20.90
2016,06,20,14,25,20.90
2016,06,20,14,26,20.90
2016,06,20,14,27,20.90
2016,06,20,14,28,20.80
2016,06,20,14,29,20.80
2016,06,20,14,30,20.80
2016,06,20,14,31,20.80
2016,06,20,14,32,20.90
2016,06,20,14,33,20.90
2016,06,20,14,34,20.90
2016,06,20,14,35,20.80
2016,06,20,14,36,20.80
2016,06,20,14,37,20.90
2016,06,20,14,38,20.90
2016,06,20,14,39,21.00
2016,06,20,14,40,21.00
2016,06,20,14,41,21.10
2016,06,20,14,42,21.00
2016,06,20,14,43,21.00
2016,06,20,14,44,21.00
2016,06,20,14,45,20.90
2016,06,20,14,46,21.00
2016,06,20,14,47,21.00
2016,06,20,14,48,20.90
2016,06,20,14,49,20.90
2016,06,20,14,50,20.90
2016,06,20,14,51,21.00
2016,06,20,14,52,21.00
2016,06,20,14,53,21.10
2016,06,20,14,54,21.00
2016,06,20,14,55,21.00
2016,06,20,14,56,21.00
2016,06,20,14,57,21.00
2016,06,20,14,58,21.00
2016,06,20,14,59,21.10
2016,06,20,15,00,21.10
2016,06,20,15,01,21.20
2016,06,20,15,02,21.20
2016,06,20,15,03,21.30
2016,06,20,15,04,21.30
2016,06,20,15,05,21.40
2016,06,20,15,06,21.40
2016,06,20,15,07,21.50
2016,06,20,15,08,21.70
2016,06,20,15,09,21.80
2016,06,20,15,10,21.80
2016,06,20,15,11,21.90
2016,06,20,15,12,21.90
2016,06,20,15,13,21.90
2016,06,20,15,14,21.90
2016,06,20,15,15,21.90
2016,06,20,15,16,21.90
2016,06,20,15,17,21.90
2016,06,20,15,18,21.90
2016,06,20,15,19,21.90
2016,06,20,15,20,21.90
2016,06,20,15,21,21.80
2016,06,20,15,22,21.70
2016,06,20,15,23,21.60
2016,06,20,15,24,21.50
2016,06,20,15,25,21.40
2016,06,20,15,26,21.30
2016,06,20,15,27,21.30
2016,06,20,15,28,21.30
2016,06,20,15,29,21.30
2016,06,20,15,30,21.40
2016,06,20,15,31,21.40
2016,06,20,15,32,21.50
2016,06,20,15,33,21.50
2016,06,20,15,34,21.50
2016,06,20,15,35,21.50
2016,06,20,15,36,21.60
2016,06,20,15,37,21.70
2016,06,20,15,38,21.80
2016,06,20,15,39,21.90
2016,06,20,15,40,21.90
2016,06,20,15,41,21.90
2016,06,20,15,42,21.90
2016,06,20,15,43,21.90
2016,06,20,15,44,21.90
2016,06,20,15,45,21.90
2016,06,20,15,46,21.90
2016,06,20,15,47,21.90
2016,06,20,15,48,22.00
2016,06,20,15,49,22.00
2016,06,20,15,50,22.10
2016,06,20,15,51,22.20
2016,06,20,15,52,22.20
2016,06,20,15,53,22.30
2016,06,20,15,54,22.40
2016,06,20,15,55,22.40
2016,06,20,15,56,22.40
2016,06,20,15,57,22.30
2016,06,20,15,58,22.30
2016,06,20,15,59,22.20
2016,06,20,16,00,22.20
2016,06,20,16,01,22.10
2016,06,20,16,02,22.00
2016,06,20,16,03,22.10
2016,06,20,16,04,22.10
2016,06,20,16,05,22.10
2016,06,20,16,06,22.00
2016,06,20,16,07,22.00
2016,06,20,16,08,22.00
2016,06,20,16,09,22.00
2016,06,20,16,10,22.10
2016,06,20,16,11,22.10
2016,06,20,16,12,22.10
2016,06,20,16,13,22.20
2016,06,20,16,14,22.30
2016,06,20,16,15,22.20
2016,06,20,16,16,22.10
2016,06,20,16,17,22.10
2016,06,20,16,18,22.00
2016,06,20,16,19,22.00
2016,06,20,16,20,22.00
2016,06,20,16,21,22.10
2016,06,20,16,22,22.10
2016,06,20,16,23,22.10
2016,06,20,16,24,22.20
2016,06,20,16,25,22.20
2016,06,20,16,26,22.20
2016,06,20,16,27,22.10
2016,06,20,16,28,22.00
2016,06,20,16,29,21.90
2016,06,20,16,30,21.90
2016,06,20,16,31,21.90
2016,06,20,16,32,21.80
2016,06,20,16,33,21.70
2016,06,20,16,34,21.70
2016,06,20,16,35,21.60
2016,06,20,16,36,21.60
2016,06,20,16,37,21.50
2016,06,20,16,38,21.50
2016,06,20,16,39,21.60
2016,06,20,16,40,21.60
2016,06,20,16,41,21.60
2016,06,20,16,42,21.60
2016,06,20,16,43,21.50
2016,06,20,16,44,21.40
2016,06,20,16,45,21.30
2016,06,20,16,46,21.30
2016,06,20,16,47,21.30
2016,06,20,16,48,21.30
2016,06,20,16,49,21.20
2016,06,20,16,50,21.20
2016,06,20,16,51,21.20
2016,06,20,16,52,21.20
2016,06,20,16,53,21.20
2016,06,20,16,54,21.20
2016,06,20,16,55,21.10
2016,06,20,16,56,21.10
2016,06,20,16,57,21.00
2016,06,20,16,58,21.00
2016,06,20,16,59,21.00
2016,06,20,17,00,21.10
2016,06,20,17,01,21.10
2016,06,20,17,02,21.30
2016,06,20,17,03,21.40
2016,06,20,17,04,21.50
2016,06,20,17,05,21.50
2016,06,20,17,06,21.50
2016,06,20,17,07,21.50
2016,06,20,17,08,21.70
2016,06,20,17,09,21.80
2016,06,20,17,10,22.00
2016,06,20,17,11,22.00
2016,06,20,17,12,22.20
2016,06,20,17,13,22.30
2016,06,20,17,14,22.30
2016,06,20,17,15,22.30
2016,06,20,17,16,22.40
2016,06,20,17,17,22.30
2016,06,20,17,18,22.30
2016,06,20,17,19,22.10
2016,06,20,17,20,21.90
2016,06,20,17,21,21.80
2016,06,20,17,22,21.80
2016,06,20,17,23,21.80
2016,06,20,17,24,21.80
2016,06,20,17,25,21.70
2016,06,20,17,26,21.60
2016,06,20,17,27,21.60
2016,06,20,17,28,21.80
2016,06,20,17,29,21.80
2016,06,20,17,30,21.80
2016,06,20,17,31,21.80
2016,06,20,17,32,21.70
2016,06,20,17,33,21.50
2016,06,20,17,34,21.50
2016,06,20,17,35,21.40
2016,06,20,17,36,21.30
2016,06,20,17,37,21.30
2016,06,20,17,38,21.30
2016,06,20,17,39,21.30
2016,06,20,17,40,21.40
2016,06,20,17,41,21.40
2016,06,20,17,42,21.40
2016,06,20,17,43,21.50
2016,06,20,17,44,21.50
2016,06,20,17,45,21.50
2016,06,20,17,46,21.30
2016,06,20,17,47,21.20
2016,06,20,17,48,21.20
2016,06,20,17,49,21.10
2016,06,20,17,50,21.00
2016,06,20,17,51,21.00
2016,06,20,17,52,20.90
2016,06,20,17,53,20.90
2016,06,20,17,54,20.90
2016,06,20,17,55,20.90
2016,06,20,17,56,20.90
2016,06,20,17,57,20.80
2016,06,20,17,58,20.80
2016,06,20,17,59,20.80
2016,06,20,18,00,20.80
2016,06,20,18,01,20.80
2016,06,20,18,02,20.80
2016,06,20,18,03,20.80
2016,06,20,18,04,20.80
2016,06,20,18,05,20.90
2016,06,20,18,06,20.90
2016,06,20,18,07,21.00
2016,06,20,18,08,21.10
2016,06,20,18,09,21.10
2016,06,20,18,10,21.10
2016,06,20,18,11,21.10
2016,06,20,18,12,21.10
2016,06,20,18,13,21.10
2016,06,20,18,14,21.10
2016,06,20,18,15,21.10
2016,06,20,18,16,21.10
2016,06,20,18,17,21.10
2016,06,20,18,18,21.10
2016,06,20,18,19,21.20
2016,06,20,18,20,21.20
2016,06,20,18,21,21.20
2016,06,20,18,22,21.30
2016,06,20,18,23,21.30
2016,06,20,18,24,21.30
2016,06,20,18,25,21.30
2016,06,20,18,26,21.20
2016,06,20,18,27,21.10
2016,06,20,18,28,21.10
2016,06,20,18,29,21.10
2016,06,20,18,30,21.20
2016,06,20,18,31,21.20
2016,06,20,18,32,21.20
2016,06,20,18,33,21.20
2016,06,20,18,34,21.20
2016,06,20,18,35,21.30
2016,06,20,18,36,21.30
2016,06,20,18,37,21.30
2016,06,20,18,38,21.30
2016,06,20,18,39,21.30
2016,06,20,18,40,21.40
2016,06,20,18,41,21.40
2016,06,20,18,42,21.40
2016,06,20,18,43,21.50
2016,06,20,18,44,21.50
2016,06,20,18,45,21.50
2016,06,20,18,46,21.60
2016,06,20,18,47,21.60
2016,06,20,18,48,21.60
2016,06,20,18,49,21.60
2016,06,20,18,50,21.60
2016,06,20,18,51,21.60
2016,06,20,18,52,21.70
2016,06,20,18,53,21.70
2016,06,20,18,54,21.70
2016,06,20,18,55,21.70
2016,06,20,18,56,21.80
2016,06,20,18,57,21.80
2016,06,20,18,58,21.80
2016,06,20,18,59,21.90
2016,06,20,19,00,21.90
2016,06,20,19,01,21.90
2016,06,20,19,02,22.00
2016,06,20,19,03,22.00
2016,06,20,19,04,22.10
2016,06,20,19,05,22.10
2016,06,20,19,06,22.20
2016,06,20,19,07,22.20
2016,06,20,19,08,22.20
2016,06,20,19,09,22.20
2016,06,20,19,10,22.10
2016,06,20,19,11,22.10
2016,06,20,19,12,22.10
2016,06,20,19,13,22.10
2016,06,20,19,14,22.10
2016,06,20,19,15,22.10
2016,06,20,19,16,22.10
2016,06,20,19,17,22.00
2016,06,20,19,18,22.00
2016,06,20,19,19,22.00
2016,06,20,19,20,22.10
2016,06,20,19,21,22.10
2016,06,20,19,22,22.10
2016,06,20,19,23,22.10
2016,06,20,19,24,22.10
2016,06,20,19,25,22.10
2016,06,20,19,26,22.10
2016,06,20,19,27,22.10
2016,06,20,19,28,22.10
2016,06,20,19,29,22.10
2016,06,20,19,30,22.00
2016,06,20,19,31,22.00
2016,06,20,19,32,22.00
2016,06,20,19,33,22.00
2016,06,20,19,34,22.00
2016,06,20,19,35,22.00
2016,06,20,19,36,22.00
2016,06,20,19,37,22.00
2016,06,20,19,38,21.90
2016,06,20,19,39,21.90
2016,06,20,19,40,21.90
2016,06,20,19,41,21.80
2016,06,20,19,42,21.80
2016,06,20,19,43,21.80
2016,06,20,19,44,21.70
2016,06,20,19,45,21.70
2016,06,20,19,46,21.60
2016,06,20,19,47,21.40
2016,06,20,19,48,21.20
2016,06,20,19,49,21.10
2016,06,20,19,50,20.90
2016,06,20,19,51,20.70
2016,06,20,19,52,20.50
2016,06,20,19,53,20.30
2016,06,20,19,54,20.10
2016,06,20,19,55,19.90
2016,06,20,19,56,19.70
2016,06,20,19,57,19.50
2016,06,20,19,58,19.40
2016,06,20,19,59,19.30
2016,06,20,20,00,19.30
2016,06,20,20,01,19.30
2016,06,20,20,02,19.40
2016,06,20,20,03,19.40
2016,06,20,20,04,19.50
2016,06,20,20,05,19.70
2016,06,20,20,06,19.80
2016,06,20,20,07,19.90
2016,06,20,20,08,19.90
2016,06,20,20,09,20.00
2016,06,20,20,10,20.10
2016,06,20,20,11,20.20
2016,06,20,20,12,20.30
2016,06,20,20,13,20.30
2016,06,20,20,14,20.40
2016,06,20,20,15,20.40
2016,06,20,20,16,20.50
2016,06,20,20,17,20.50
2016,06,20,20,18,20.60
2016,06,20,20,19,20.60
2016,06,20,20,20,20.60
2016,06,20,20,21,20.60
2016,06,20,20,22,20.60
2016,06,20,20,23,20.60
2016,06,20,20,24,20.60
2016,06,20,20,25,20.60
2016,06,20,20,26,20.60
2016,06,20,20,27,20.60
2016,06,20,20,28,20.60
2016,06,20,20,29,20.60
2016,06,20,20,30,20.60
2016,06,20,20,31,20.50
2016,06,20,20,32,20.50
2016,06,20,20,33,20.50
2016,06,20,20,34,20.40
2016,06,20,20,35,20.40
2016,06,20,20,36,20.40
2016,06,20,20,37,20.40
2016,06,20,20,38,20.30
2016,06,20,20,39,20.30
2016,06,20,20,40,20.30
2016,06,20,20,41,20.30
2016,06,20,20,42,20.30
2016,06,20,20,43,20.30
2016,06,20,20,44,20.30
2016,06,20,20,45,20.30
2016,06,20,20,46,20.20
2016,06,20,20,47,20.20
2016,06,20,20,48,20.20
2016,06,20,20,49,20.20
2016,06,20,20,50,20.20
2016,06,20,20,51,20.20
2016,06,20,20,52,20.20
2016,06,20,20,53,20.20
2016,06,20,20,54,20.10
2016,06,20,20,55,20.10
2016,06,20,20,56,20.10
2016,06,20,20,57,20.10
2016,06,20,20,58,20.10
2016,06,20,20,59,20.10
2016,06,20,21,00,20.10
2016,06,20,21,01,20.00
2016,06,20,21,02,20.00
2016,06,20,21,03,20.00
2016,06,20,21,04,20.00
2016,06,20,21,05,20.00
2016,06,20,21,06,20.00
2016,06,20,21,07,19.90
2016,06,20,21,08,19.90
2016,06,20,21,09,19.90
2016,06,20,21,10,19.90
2016,06,20,21,11,19.90
2016,06,20,21,12,19.90
2016,06,20,21,13,19.90
2016,06,20,21,14,19.90
2016,06,20,21,15,19.80
2016,06,20,21,16,19.80
2016,06,20,21,17,19.80
2016,06,20,21,18,19.80
2016,06,20,21,19,19.80
2016,06,20,21,20,19.80
2016,06,20,21,21,19.80
2016,06,20,21,22,19.80
2016,06,20,21,23,19.80
2016,06,20,21,24,19.80
2016,06,20,21,25,19.80
2016,06,20,21,26,19.80
2016,06,20,21,27,19.80
2016,06,20,21,28,19.80
2016,06,20,21,29,19.80
2016,06,20,21,30,19.80
2016,06,20,21,31,19.80
2016,06,20,21,32,19.80
2016,06,20,21,33,19.70
2016,06,20,21,34,19.70
2016,06,20,21,35,19.70
2016,06,20,21,36,19.70
2016,06,20,21,37,19.70
2016,06,20,21,38,19.70
2016,06,20,21,39,19.70
2016,06,20,21,40,19.60
2016,06,20,21,41,19.60
2016,06,20,21,42,19.60
2016,06,20,21,43,19.60
2016,06,20,21,44,19.60
2016,06,20,21,45,19.60
2016,06,20,21,46,19.60
2016,06,20,21,47,19.60
2016,06,20,21,48,19.60
2016,06,20,21,49,19.60
2016,06,20,21,50,19.60
2016,06,20,21,51,19.60
2016,06,20,21,52,19.60
2016,06,20,21,53,19.60
2016,06,20,21,54,19.60
2016,06,20,21,55,19.60
2016,06,20,21,56,19.50
2016,06,20,21,57,19.50